LUCH 5A (37951 NORAD) Tracking and Keplerian Element Data

This shows tracking and keplerian element data for the satellite.

Feedback or suggestion? Click here.




ElementValue
Catalog37951
NameLUCH 5A
Epoch Orbit2544
Epoch Day323.21616427
Epoch Year2018
RAAN139.2603
Inclination2.0949
Eccentricity0.0002628
Argument of Perigee129.5856
Mean Anonmoly34.1296
Mean Motion1.00271176
Decay Rate-3.3E-07
L11 37951U 11074B 18323.21616427 -.00000033 00000-0 00000+0 0 9990
L22 37951 2.0949 139.2603 0002628 129.5856 34.1296 1.00271176 25444

Live tracking and technical data element details for LUCH 5A (NORAD 37951). LUCH 5A can be tracked NOW for your location showing map with azimuth and elevation plus other details from your city location.

Track the satellite on the map from your city or location and see movement details for azimuth, elevation, latitude, longitude, range, height, and movement on the map or in text.







IsCatalogInMostPopularTable: catalog: 37951, numindb: 53
Update: records affected: 1



GetName: 37951 LUCH 5A

Hit Count: updated at: Tue, 20 Nov 2018 00:07:09 GMT